Regional Weather Roundup
Issued by NWS

Home | Current Version | Previous Version | Graphics & Text | Print | Product List | Glossary On
Versions: 1 2 3 4 5 6 7 8 9 10 11 12 13 14 15 16 17 18 19 20 21 22 23 24 25 26 27 28 29 30 31 32 33 34 35 36 37 38 39 40 41 42 43 44 45 46 47 48 49 50
000
ASUS43 KBIS 271910
RWRND

NORTH DAKOTA REGIONAL WEATHER ROUNDUP
NATIONAL WEATHER SERVICE BISMARCK ND
200 PM CDT TUE SEP 27 2016

NOTE: "FAIR" INDICATES FEW OR NO CLOUDS BELOW 12,000 FEET WITH NO
SIGNIFICANT WEATHER AND/OR OBSTRUCTIONS TO VISIBILITY.


NDZ001>003-009>011-017-272000-
NORTHWEST NORTH DAKOTA

CITY           SKY/WX    TMP DP  RH WIND       PRES   REMARKS
WILLISTON      SUNNY     72  51  47 SE6       29.94F
MINOT          SUNNY     67  38  34 CALM      29.95F
MINOT AFB      SUNNY     66  39  36 N5        29.94F
$$

NDZ018>021-031>035-040>046-272000-
SOUTHWEST NORTH DAKOTA

CITY           SKY/WX    TMP DP  RH WIND       PRES   REMARKS
BISMARCK       SUNNY     70  40  33 NW9       29.96F
DICKINSON      SUNNY     73  46  38 VRB6      29.95F
GARRISON         N/A     68  42  38 VRB3      29.96F
HETTINGER ARPT SUNNY     77  47  34 NW12      29.99F
$$

NDZ004>008-012>016-024-026-027-054-272000-
NORTHEAST NORTH DAKOTA

CITY           SKY/WX    TMP DP  RH WIND       PRES   REMARKS
GRAND FORKS    MOSUNNY   59  45  59 N17G24    29.89F
GRND FRKS AFB  SUNNY     58  44  58 N14       29.89S
DEVILS LAKE    SUNNY     62  34  35 N18       29.93F
$$

NDZ022-023-025-028>030-036>039-047>053-272000-
SOUTHEAST NORTH DAKOTA

CITY           SKY/WX    TMP DP  RH WIND       PRES   REMARKS
FARGO          SUNNY     64  40  41 N17       29.86F
JAMESTOWN      SUNNY     64  31  28 NW15      29.91F
$$





USA.gov is the U.S. government's official web portal to all federal, state and local government web resources and services.